Notices

What's New in latest Release from April 7th, 2021:

- Updated Glossary, including Speed of Maximum Gust, and Total Hourly Precipitation

- Updated national and regional climate services offices contacts and prices information

- Addition of station inventory lists for 1981-2010, 1971-2000, and 1961-1990 Normals.

If you haven't already, please take our survey and provide feedback about our website: https://eccc.sondage-survey.ca/f/LanguageSelection.aspx?s=442ca660-fcf1-47c0-95a9-59707d6fd709

Hourly Data Report for March 25, 2019

MIRAMICHI RCS
NEW BRUNSWICK
Current Station Operator: ECCC - MSC

47°00'34.000" N
65°27'54.000" W
33.00 m
8100989
71744
ACQ

Download Data

Hourly Data (March 2019)
Hourly Data Report for March 25, 2019
TIME
LST
Temp Definition
°C
Dew Point Definition
°C
Rel Hum Definition
%
Precip. Amount Definition
mm

Wind Dir Definition
10's deg

Wind Spd Definition
km/h
Visibility Definition
km
Stn Press Definition
kPa
Hmdx Definition


Wind Chill Definition


Weather Definition


00:00 -3.1 -11.3 53 0.0 31 3   100.67   -4 LegendNANA
01:00 -2.8 -11.8 50 0.0 33 8   100.68   -6 LegendNANA
02:00 -3.4 -11.3 54 0.0 33 3   100.74   -5 LegendNANA
03:00 -4.2 -12.7 52 0.0 36 8   100.77   -8 LegendNANA
04:00 -6.0 -15.4 47 0.0 34 7   100.83   -9 LegendNANA
05:00 -7.0 -15.8 50 0.0 34 7   100.86   -11 LegendNANA
06:00 -8.1 -15.5 56 0.0 32 5   100.88   -11 LegendNANA
07:00 -8.5 -16.4 53 0.0 32 7   100.89   -12 LegendNANA
08:00 -7.2 -15.9 50 0.0 29 8   100.88   -11 LegendNANA
09:00 -5.5 -14.9 47 0.0 26 13   100.85   -11 LegendNANA
10:00 -5.0 -17.5 37 0.0 30 17   100.81   -11 LegendNANA
11:00 -3.6 -16.6 36 0.0 27 21   100.73   -10 LegendNANA
12:00 -2.8 -17.1 32 0.0 28 28   100.68   -10 LegendNANA
13:00 -1.6 -15.7 33 0.0 26 23   100.63   -8 LegendNANA
14:00 -1.4 -16.0 32 0.0 28 29   100.60   -8 LegendNANA
15:00 -1.1 -15.6 32 0.0 27 24   100.62   -7 LegendNANA
16:00 -1.4 -15.6 33 0.0 28 24   100.66   -8 LegendNANA
17:00 -1.7 -15.9 33 0.0 28 25   100.68   -8 LegendNANA
18:00 -2.4 -16.6 33 0.0 28 20   100.78   -8 LegendNANA
19:00 -3.5 -16.8 35 0.0 28 16   100.89   -9 LegendNANA
20:00 -4.2 -17.1 36 0.0 27 7   100.97   -7 LegendNANA
21:00 -5.9 -16.6 43 0.0 25 6   101.09   -9 LegendNANA
22:00 -7.0 -15.8 50 0.0 23 9   101.13   -11 LegendNANA
23:00 -7.8 -15.9 52 0.0 28 6   101.17   -11 LegendNANA

Notes on Data Quality.

Legend

  • E = Estimated
  • M = Missing
  • NA = Not Available*
  • [empty] = Indicates an unobserved value
Date modified: